IZ3VCM Weather Reports


time (UTC)temp
C
wind
direction
speed
KPH
gust
KPH
rain 1hr
cm
rain 24hr
cm
rain mn
cm
humidity
%
barometer
mb
20260507133005 24 203 1.6 6.4 0.00 0.00 0.00 46 1011.8
20260507131503 23 225 0.0 8.0 0.00 0.00 0.00 49 1011.8
20260507130005 23 292 1.6 4.8 0.00 0.00 0.00 48 1011.8
20260507124502 25 224 3.2 8.0 0.00 0.00 0.00 45 1011.8
20260507121502 25 265 3.2 9.7 0.00 0.00 0.00 46 1011.9
20260507120005 24 207 1.6 9.7 0.00 0.13 0.00 47 1012.0
20260507114503 23 247 0.0 1.6 0.00 0.41 0.00 50 1012.2
20260507113006 24 237 4.8 9.7 0.00 0.53 0.00 48 1012.3
20260507111503 23 231 6.4 9.7 0.00 0.53 0.00 50 1012.4
20260507110005 23 213 6.4 9.7 0.00 0.53 0.00 50 1012.5
20260507104502 23 185 8.0 11.3 0.00 0.53 0.00 51 1012.7
20260507103005 23 247 0.0 1.6 0.00 0.53 0.00 52 1012.8
20260507101502 23 218 3.2 8.0 0.00 0.53 0.00 52 1013.0
20260507100005 22 261 3.2 8.0 0.00 0.53 0.00 54 1013.0
20260507094502 22 257 3.2 6.4 0.00 0.61 0.00 55 1013.1
20260507093004 22 205 8.0 11.3 0.00 0.61 0.00 55 1013.0
20260507091503 21 259 4.8 12.9 0.00 0.61 0.00 55 1012.9
20260507090005 21 251 9.7 9.7 0.00 0.61 0.00 56 1012.9
20260507084503 21 265 3.2 6.4 0.00 0.61 0.00 59 1013.0
20260507083005 20 272 6.4 12.9 0.00 0.61 0.00 60 1013.0
20260507081503 20 284 4.8 9.7 0.00 0.61 0.00 62 1012.8
20260507074503 19 0 0.0 0.0 0.00 0.61 0.00 69 1012.9
20260507073004 18 283 1.6 3.2 0.00 0.61 0.00 75 1013.0
20260507071503 17 0 0.0 0.0 0.00 0.61 0.00 78 1013.0
20260507070009 17 203 0.0 4.8 0.00 0.61 0.00 81 1012.7
20260507064502 16 0 0.0 0.0 0.00 0.61 0.00 88 1012.7
20260506221503 13 0 0.0 0.0 0.00 0.71 0.00 91 1010.4
20260506220005 13 0 0.0 0.0 0.00 0.71 0.00 91 1010.3
20260506214503 13 0 0.0 0.0 0.00 0.71 0.71 91 1010.2
20260506213005 13 0 0.0 0.0 0.00 0.71 0.71 91 1010.2
20260506211503 13 0 0.0 0.0 0.00 0.71 0.71 90 1010.2
20260506210005 14 0 0.0 0.0 0.00 0.71 0.71 90 1010.2
20260506204504 14 0 0.0 0.0 0.00 0.71 0.71 90 1010.3
20260506203006 14 0 0.0 0.0 0.00 0.71 0.71 90 1010.0
20260506201503 14 0 0.0 0.0 0.00 0.71 0.71 89 1010.0
20260506200005 14 0 0.0 0.0 0.00 0.71 0.71 89 1009.7
20260506194503 15 0 0.0 0.0 0.00 0.71 0.71 89 1009.4
20260506193005 15 0 0.0 0.0 0.00 0.71 0.71 88 1009.3
20260506191503 15 0 0.0 0.0 0.00 0.71 0.71 87 1009.0
20260506190007 16 0 0.0 0.0 0.00 0.71 0.71 87 1008.9
20260506184502 16 0 0.0 0.0 0.00 0.71 0.71 86 1008.9
20260506183006 16 0 0.0 0.0 0.00 0.71 0.71 85 1008.7
20260506181503 16 0 0.0 0.0 0.00 0.71 0.71 85 1008.7
20260506173006 17 45 1.6 4.8 0.00 0.71 0.71 82 1008.3
20260506171502 18 23 1.6 6.4 0.00 0.71 0.71 83 1008.4
20260506170005 18 0 0.0 0.0 0.00 0.71 0.71 84 1008.2
20260506164504 18 112 3.2 6.4 0.00 0.71 0.71 83 1008.2
20260506163006 18 117 4.8 8.0 0.00 0.71 0.71 81 1008.0
20260506161503 20 0 0.0 0.0 0.00 0.71 0.71 77 1008.2
20260506160005 20 0 0.0 0.0 0.00 0.71 0.71 77 1008.3
20260506154504 20 94 6.4 11.3 0.00 0.71 0.71 79 1008.1
20260506153005 21 116 4.8 9.7 0.00 0.71 0.71 79 1008.1
20260506151503 20 93 3.2 9.7 0.00 0.71 0.71 79 1008.1
20260506150007 20 112 3.2 6.4 0.00 0.71 0.71 77 1008.2
20260506144503 21 0 0.0 0.0 0.00 0.71 0.71 74 1008.1
20260506143005 21 0 0.0 0.0 0.00 0.71 0.71 74 1008.2
20260506141503 21 183 3.2 8.0 0.00 0.71 0.71 78 1008.3
20260506140006 21 90 0.0 3.2 0.00 0.71 0.71 82 1008.5
20260506134504 19 0 0.0 0.0 0.00 0.71 0.71 83 1008.8